Hourly Data Report for June 21, 2012

All times are specified in Local Standard Time (LST). Add 1 hour to adjust for Daylight Saving Time where and when it is observed.

SAINT JOHN A
NEW BRUNSWICK

45°18'58.000" N
65°53'24.000" W
108.80 m
8104901
71609
YSJ

Download Data

Hourly Data (June 2012)
Hourly Data Report for June 21, 2012
Temp Definition
°C
Dew Point Temp Definition
°C
Rel Hum Definition
%
Wind Dir Definition
10's deg

Wind Spd Definition
km/h
Visibility Definition
km
Stn Press Definition
kPa
Hmdx Definition


Wind Chill Definition


Weather Definition


TIME
00:00 21.1 10.1 49 35 26 10.0 99.48     LegendNANA
01:00 19.5 10.6 56 0 11 10.0 99.51     LegendNANA
02:00 18.9 10.8 59 35 10 10.0 99.49     Mostly Cloudy
03:00 17.2 11.3 68 32 9 10.0 99.49     LegendNANA
04:00 14.9 11.1 78 0 8 10.0 99.46     LegendNANA
05:00 14.4 11.0 80 30 7 10.0 99.52     Mostly Cloudy
06:00 17.3 11.6 69 35 8 10.0 99.53     LegendNANA
07:00 19.2 11.8 62 33 20 10.0 99.54     LegendNANA
08:00 20.6 11.6 56 33 23 10.0 99.58     Mostly Cloudy
09:00 22.2 12.3 53 1 14 10.0 99.51 25   LegendNANA
10:00 23.4 12.6 50 1 12 10.0 99.51 26   LegendNANA
11:00 24.1 12.3 47 35 6 10.0 99.49 27   Mostly Cloudy
12:00 25.2 12.6 45 1 17 10.0 99.47 28   LegendNANA
13:00 26.5 13.1 43 2 17 10.0 99.46 29   LegendNANA
14:00 26.8 13.7 44 1 12 10.0 99.41 30   Mostly Cloudy
15:00 26.7 14.0 45 8 6 10.0 99.42 30   LegendNANA
16:00 24.6 13.4 49 21 21 10.0 99.43 28   LegendNANA
17:00 25.3 13.4 47 19 16 10.0 99.39 28   Mostly Cloudy
18:00 24.6 13.7 50 18 15 10.0 99.41 28   LegendNANA
19:00 22.8 13.4 55 20 12 10.0 99.48 26   LegendNANA
20:00 20.0 13.3 65 16 6 10.0 99.52     Mainly Clear
21:00 16.7 12.7 77 20 5 10.0 99.58     LegendNANA
22:00 13.8 11.7 87 8 5 10.0 99.56     LegendNANA
23:00 14.4 11.9 85   0 10.0 99.57     Mainly Clear

Notes on Data Quality.

Legend

  • E = Estimated
  • M = Missing
  • NA = Not Available
Date modified: